Flag for Norway Weather past 2 weeks in Harstad, Norway

Now
37 °F

Clear.


Feels Like: 29 °F
Forecast: 33 / 38 °F
Wind: 14 mph from Southeast

Location: Evenes

Current Time: Oct 21, 2014 at 1:35:55 AM

Latest Report: Oct 21, 2014 at 12:50 AM


Visibility: 10 mi

Pressure: 29.62 "Hg

Humidity: 60%

Dew point: 25 °F

Location of HarstadLocation

Historic Weather in Harstad — Graph

°F

Harstad temperature yesterday

Maximum temperature yesterday: 37 °F (at 12:20 PM)
Minimum temperature yesterday: 34 °F (at 12:20 AM)
Average temperature yesterday: 35 °F

Past Weeks' High & Low Weather Summary

 TemperatureHumidityPressure
High63 °F (Oct 6, 1:50 PM)100% (Oct 6, 10:20 PM)30.51 "Hg (Oct 6, 10:20 PM)
Low23 °F (Oct 13, 1:20 AM)45% (Oct 6, 1:50 PM)29.50 "Hg (Oct 20, 1:20 AM)
Average37 °F79%29.99 "Hg
* Reported Oct 5 11:20 PM — Oct 20 11:50 PM, Harstad, Weather by CustomWeather, © 2014

Note: Actual official high and low records may vary slightly from our data, if they occured in-between our weather recording intervals... More about our weather records

Advertising

Harstad weather history for previous 24 hours

 ConditionsComfort  
Time TempWeatherWind HumidityBarometerVisibility
11:50 PM
Oct 20
37 °FClear.15 mph65%29.62 "Hg10 mi
10:50 PM36 °FClear.16 mph65%29.62 "Hg10 mi
9:50 PM36 °FClear.16 mph65%29.59 "Hg10 mi
8:50 PM36 °FClear.16 mph65%29.59 "Hg10 mi
7:50 PM36 °FClear.15 mph65%29.59 "Hg10 mi
6:50 PM37 °FClear.15 mph60%29.56 "Hg10 mi
6:20 PM37 °FClear.14 mph60%29.56 "Hg10 mi
5:50 PM37 °FSunny.14 mph60%29.56 "Hg10 mi
4:50 PM37 °FSunny.15 mph60%29.56 "Hg10 mi
3:50 PM37 °FSunny.14 mph60%29.56 "Hg10 mi
2:50 PM37 °FSunny.14 mph56%29.53 "Hg10 mi
1:50 PM37 °FSunny.15 mph56%29.53 "Hg10 mi
12:50 PM37 °FSunny.17 mph56%29.53 "Hg10 mi
12:20 PM37 °FSunny.16 mph56%29.53 "Hg10 mi
11:50 AM36 °FSunny.16 mph56%29.53 "Hg10 mi
10:50 AM36 °FSunny.18 mph56%29.53 "Hg10 mi
9:50 AM34 °FSunny.15 mph60%29.50 "Hg10 mi
8:50 AM34 °FClear.15 mph60%29.50 "Hg10 mi
7:50 AM34 °FClear.17 mph60%29.50 "Hg10 mi
6:50 AM34 °FClear.15 mph60%29.50 "Hg10 mi
5:20 AM34 °FChilly.16 mph60%29.50 "HgN/A
4:50 AM34 °FChilly.16 mph65%29.50 "HgN/A
4:20 AM34 °FChilly.15 mph65%29.50 "HgN/A
3:50 AM34 °FChilly.17 mph65%29.50 "HgN/A
3:20 AM34 °FChilly.16 mph60%29.50 "HgN/A
2:50 AM34 °FChilly.14 mph60%29.50 "HgN/A
2:20 AM34 °FChilly.15 mph60%29.50 "HgN/A
1:50 AM34 °FChilly.17 mph60%29.50 "HgN/A
1:20 AM34 °FChilly.16 mph60%29.50 "HgN/A
Weather by CustomWeather, © 2014

See weather overviewHow to use our weather pages